FW6557 Weather Reports


time (UTC)temp
F
wind
direction
speed
knots
gust
knots
rain 1hr
in
rain 24hr
in
rain mn
in
humidity
%
barometer
mb
20260508013003 49 38 0.9 5.2 0.01 0.74 0.74 97 1002.6
20260508011601 49 34 0.9 3.5 0.01 0.74 0.74 97 1002.3
20260508010059 50 27 1.7 6.1 0.02 0.74 0.74 97 1002.2
20260508004559 51 223 0.0 1.7 0.03 0.74 0.74 97 1002.3
20260508003055 51 231 2.6 6.1 0.03 0.73 0.73 97 1002.1
20260508001550 53 265 3.5 8.7 0.04 0.73 0.73 97 1002.2
20260508000055 53 207 1.7 5.2 0.02 0.72 0.72 97 1002.0
20260507234555 53 144 0.0 0.0 0.02 0.71 0.71 97 1001.9
20260507233109 53 158 0.0 2.6 0.01 0.70 0.70 97 1001.8
20260507231548 53 158 0.9 2.6 0.00 0.69 0.69 97 1001.7
20260507230049 53 74 0.0 2.6 0.00 0.69 0.69 97 1001.5
20260507224548 53 97 0.9 1.7 0.00 0.69 0.69 97 1001.8
20260507223056 53 97 0.0 1.7 0.00 0.69 0.69 97 1001.4
20260507221545 53 97 1.7 2.6 0.00 0.69 0.69 96 1001.6
20260507220044 53 98 0.0 1.7 0.00 0.69 0.69 96 1001.7
20260507214546 54 98 0.0 0.9 0.00 0.69 0.69 96 1001.6
20260507213045 54 107 0.0 5.2 0.00 0.69 0.69 96 1001.7
20260507211550 54 77 0.9 4.3 0.00 0.69 0.69 96 1001.6
20260507210103 54 118 0.9 3.5 0.01 0.69 0.69 96 1001.8
20260507204547 53 130 0.0 5.2 0.01 0.69 0.69 96 1001.5
20260507203043 53 130 0.9 6.1 0.04 0.69 0.69 96 1001.8
20260507201539 53 113 0.9 5.2 0.09 0.69 0.69 96 1001.1
20260507200048 54 128 2.6 6.1 0.11 0.69 0.69 96 1001.5
20260507194547 54 117 2.6 6.1 0.13 0.69 0.69 96 1001.8
20260507193032 54 105 2.6 6.1 0.16 0.65 0.65 97 1002.1
20260507191528 55 35 1.7 5.2 0.16 0.61 0.61 96 1003.3
20260507190040 55 349 0.0 1.7 0.20 0.56 0.56 96 1003.5
20260507184533 55 349 0.0 2.6 0.28 0.56 0.56 96 1003.4
20260507183025 55 241 0.9 6.1 0.35 0.50 0.50 96 1004.0
20260507181525 55 200 0.9 7.0 0.42 0.45 0.45 96 1004.0
20260507180024 55 199 6.1 8.7 0.35 0.36 0.36 95 1004.3
20260507174524 56 180 3.5 13.0 0.25 0.26 0.26 95 1004.6
20260507173126 56 198 5.2 13.0 0.15 0.15 0.15 94 1004.1
20260507171518 57 186 3.5 13.9 0.03 0.03 0.03 93 1003.8
20260507170020 57 155 7.0 18.2 0.02 0.02 0.02 92 1003.7
20260507164522 58 146 10.4 16.5 0.01 0.01 0.01 90 1003.9
20260507163017 58 105 12.2 20.9 0.00 0.00 0.00 88 1004.0
20260507161513 60 142 11.3 20.9 0.00 0.00 0.00 85 1004.2
20260507160012 61 207 13.9 25.2 0.00 0.00 0.00 84 1004.4
20260507154512 61 123 9.6 20.9 0.00 0.00 0.00 82 1004.6
20260507153009 62 142 11.3 33.0 0.00 0.00 0.00 81 1005.2
20260507151508 62 118 12.2 24.3 0.00 0.00 0.00 80 1005.3
20260507150006 62 135 14.8 31.3 0.00 0.00 0.00 81 1005.8
20260507144504 62 131 4.3 26.9 0.00 0.00 0.00 82 1006.2
20260507143006 61 137 13.9 27.8 0.00 0.00 0.00 82 1006.0
20260507141502 61 140 13.0 22.6 0.00 0.00 0.00 83 1006.4
20260507140001 61 189 13.0 26.9 0.00 0.00 0.00 84 1006.4
20260507134559 61 179 13.9 30.4 0.00 0.00 0.00 83 1006.6
20260507133057 61 187 7.8 21.7 0.00 0.00 0.00 84 1006.8
20260507131601 60 157 7.8 20.0 0.00 0.00 0.00 86 1007.2
20260507130055 59 172 13.9 22.6 0.00 0.00 0.00 86 1007.3
20260507124602 60 148 18.2 28.7 0.00 0.00 0.00 85 1007.5
20260507123049 59 175 11.3 24.3 0.00 0.00 0.00 88 1007.5
20260507121546 58 174 10.4 26.9 0.00 0.00 0.00 89 1007.3
20260507120046 58 133 10.4 22.6 0.00 0.00 0.00 89 1007.1
20260507114602 58 171 12.2 24.3 0.00 0.00 0.00 90 1007.5
20260507113101 58 168 8.7 21.7 0.00 0.00 0.00 91 1008.1
20260507111542 58 166 7.8 14.8 0.00 0.00 0.00 90 1008.8
20260507110039 59 184 8.7 21.7 0.00 0.00 0.00 89 1009.3
20260507104541 58 166 7.8 18.2 0.00 0.00 0.00 89 1008.6
20260507103032 58 123 7.0 16.5 0.00 0.00 0.00 90 1009.0
20260507101530 58 152 7.0 20.9 0.00 0.00 0.00 90 1009.1
20260507100027 57 153 7.0 14.8 0.00 0.00 0.00 90 1009.8
20260507094526 57 142 7.8 14.8 0.00 0.00 0.00 91 1010.4
20260507093028 57 155 4.3 13.9 0.00 0.00 0.00 92 1010.4
20260507091524 56 161 5.2 12.2 0.00 0.00 0.00 92 1010.5
20260507090023 56 151 7.0 13.9 0.00 0.00 0.00 92 1010.5
20260507084519 55 130 7.8 13.9 0.00 0.00 0.00 92 1010.4
20260507083019 55 127 7.8 13.9 0.00 0.00 0.00 92 1010.6
20260507081525 55 139 6.1 13.9 0.00 0.00 0.00 91 1010.4
20260507080014 55 170 7.0 16.5 0.00 0.00 0.00 90 1010.1
20260507074512 56 126 0.9 7.0 0.00 0.00 0.00 90 1010.8
20260507073009 57 152 4.3 7.8 0.00 0.00 0.00 89 1011.5
20260507071506 57 138 1.7 13.9 0.00 0.00 0.00 89 1011.9
20260507070012 56 155 2.6 6.1 0.00 0.00 0.00 90 1012.3
20260507064505 55 10 0.0 2.6 0.00 0.00 0.00 88 1012.1
20260507063007 56 294 0.9 2.6 0.00 0.00 0.00 88 1012.3
20260507061504 55 119 0.9 5.2 0.00 0.00 0.00 89 1011.9
20260507060001 54 335 1.7 4.3 0.00 0.00 0.00 87 1012.3
20260507054559 55 118 2.6 7.8 0.00 0.00 0.00 86 1012.6
20260507053055 55 109 3.5 7.8 0.00 0.00 0.00 85 1013.2
20260507051552 56 140 3.5 6.1 0.00 0.00 0.00 83 1013.9
20260507050048 57 161 5.2 10.4 0.00 0.00 0.00 82 1014.2
20260507044557 57 171 3.5 11.3 0.00 0.00 0.00 79 1014.6
20260507043056 57 163 3.5 7.8 0.00 0.00 0.00 79 1014.8
20260507041539 57 142 3.5 7.8 0.00 0.00 0.00 78 1015.2
20260507040036 58 173 5.2 8.7 0.00 0.00 0.00 77 1015.7
20260507034536 58 156 4.3 9.6 0.00 0.00 0.00 78 1016.0
20260507033034 58 158 4.3 10.4 0.00 0.00 0.00 78 1016.1
20260507031529 58 181 2.6 9.6 0.00 0.00 0.00 79 1016.4
20260507030027 58 138 3.5 15.6 0.00 0.00 0.00 79 1016.5
20260507024526 58 190 5.2 14.8 0.00 0.00 0.00 79 1016.7
20260507023026 58 157 5.2 14.8 0.00 0.00 0.00 79 1016.9
20260507021524 58 151 3.5 9.6 0.00 0.00 0.00 79 1017.1
20260507020042 58 161 2.6 10.4 0.00 0.00 0.00 80 1017.0
20260507014524 58 196 2.6 8.7 0.00 0.00 0.00 80 1017.2
20260507013025 58 192 3.5 8.7 0.00 0.00 0.00 80 1017.2